CZ-6A DEB, 60982

Orbit data source: Space-Track

CZ-6A DEB, 60982 is space debris in LEO originally from a launch on Tue, 06 Aug 2024 UTC launched from the Taiyaun Space Center, China (TSC). Debris objects in space refer to the collection of defunct objects orbiting the Earth. Examples of debris include non-operational satellites, rocket bodies, and fragments generated from explosions, collisions, or faulty payload assembly.

Loading next visibility...
Identifier
60982, 2024-140MH
Orbit
LEO
Country
Flag of CNCN / PRC
Related business
Manufacturer
SAST
Mission
Spacecraft
Bus & Motor
Unknown
Mass
Unknown
Launch date (UTC)
2024-08-06 (2 years ago)
Launch vehicle
Unknown
Launch site
Taiyaun Space Center, China (TSC)
Object type
Payload
Rocket body
Debris
Shape & HBR
Unknown shape, 0.1 m
Radar Cross Section
Medium (>0.1 m² and <1 m²)

Expand to show TLE details & history
Last TLE update: 13 hours ago

TLE from 13 hours ago
0 CZ-6A DEB
1 60982U 24140MH  26171.32823701  .00003835  00000-0  12485-2 0  9990
2 60982  89.2727 294.8244 0038330 201.6806 158.2774 14.38197514 95679
Epoch: 2026-06-20T07:52Z
TLE epoch observation values (Epoch: 2026-06-20T07:52:39.677Z)
Latitude
-0.00001°
Longitude
-91.88536°
Altitude
792.993 km
Speed
7.444 km/s
True Right ascension
19h 39m 17s
True Declination
0° 00' 00"
Sunlit
Object was in full shadow at epoch
Visualization orbit readout
Latitude
Unknown
Longitude
Unknown
Altitude
Unknown
Speed
Unknown
Apparent Right ascension
Unknown
Apparent Declination
Unknown
Sunlit
N/A
Visualization observer readout
Local Sidereal Time
07:21:31
Azimuth
Unknown
Elevation
Unknown
Doppler factor
Unknown
Orbital elements
Apogee altitude
788.75 km
Perigee altitude
734.018 km
Semi-major axis
7,139.521 km
Eccentricity
0.00383
Inclination
89.2727°
RAAN
294.8244°
Arg. of periapsis
201.6806°
True anomaly
158.43924°
Mean anomaly
158.2774°
Eccentric anomaly
158.35839°
Mean motion
3.59782 °/min
Orbital period
100.06 mins
BSTAR
0.0012485
Loading maneuver chart data...
Computing Atmospheric mass density...
Loading historical data...
Loading historical data...
Loading historical data...
Loading historical data...
Loading historical data...
Loading historical data...
Loading historical data...

Documentation

Showing up to 5 results
|